IZ2OSD Weather Reports


time (UTC)temp
C
wind
direction
speed
KPH
gust
KPH
rain 1hr
cm
rain 24hr
cm
rain mn
cm
humidity
%
barometer
mb
20260905183812 28 0.0 0.0 0.00 0.00 0.00 57 1016.2
20260905182808 29 0.0 0.0 0.00 0.00 0.00 56 1016.2
20260905181331 29 0.0 0.0 0.00 0.00 0.00 56 1016.2
20260905180327 30 0.0 0.0 0.00 0.00 0.00 55 1016.2
20260905175324 30 0.0 0.0 0.00 0.00 0.00 54 1016.1
20260905174341 30 0.0 0.0 0.00 0.00 0.00 53 1015.9
20260905172328 30 0.0 0.0 0.00 0.00 0.00 53 1015.9
20260905171324 30 0.0 0.0 0.00 0.00 0.00 53 1015.8
20260905170321 31 0.0 1.6 0.00 0.00 0.00 52 1016.0
20260905164857 31 315 0.0 1.6 0.00 0.00 0.00 52 1015.8
20260905160124 32 0.0 0.0 0.00 0.00 0.00 47 1015.8
20260905155121 32 0.0 0.0 0.00 0.00 0.00 49 1015.8
20260905153657 32 315 1.6 4.8 0.00 0.00 0.00 49 1015.5
20260905151724 32 0.0 0.0 0.00 0.00 0.00 47 1015.7
20260905150744 32 315 3.2 6.4 0.00 0.00 0.00 47 1015.6
20260905145718 32 337 3.2 6.4 0.00 0.00 0.00 46 1015.8
20260905144734 32 315 1.6 4.8 0.00 0.00 0.00 46 1015.4
20260905143710 33 315 1.6 3.2 0.00 0.00 0.00 46 1015.6
20260905142701 33 0.0 0.0 0.00 0.00 0.00 45 1015.7
20260905141658 33 225 0.0 3.2 0.00 0.00 0.00 46 1016.1
20260905135907 33 337 1.6 3.2 0.00 0.00 0.00 46 1016.0
20260905134902 33 315 0.0 1.6 0.00 0.00 0.00 46 1015.9
20260905133859 33 315 0.0 3.2 0.00 0.00 0.00 47 1016.0
20260905132856 33 315 1.6 3.2 0.00 0.00 0.00 46 1016.0
20260905130903 33 90 0.0 1.6 0.00 0.00 0.00 45 1016.4
20260905125900 33 315 1.6 4.8 0.00 0.00 0.00 45 1016.4
20260905124857 33 292 1.6 4.8 0.00 0.00 0.00 46 1016.7
20260905123522 32 315 0.0 3.2 0.00 0.00 0.00 47 1016.7
20260905122512 32 337 1.6 6.4 0.00 0.00 0.00 47 1016.5
20260905121508 32 0.0 0.0 0.00 0.00 0.00 47 1016.4
20260905120523 32 315 1.6 4.8 0.00 0.00 0.00 46 1016.6
20260905115502 32 315 1.6 3.2 0.00 0.00 0.00 47 1016.9
20260905114457 32 315 1.6 3.2 0.00 0.00 0.00 47 1016.9
20260905113109 31 315 4.8 4.8 0.00 0.00 0.00 48 1016.9
20260905112105 32 0.0 0.0 0.00 0.00 0.00 46 1016.8
20260905111100 31 315 0.0 1.6 0.00 0.00 0.00 49 1016.8
20260905110059 31 292 1.6 3.2 0.00 0.00 0.00 49 1017.0
20260905104816 32 315 3.2 4.8 0.00 0.00 0.00 47 1016.9
20260905103813 31 315 1.6 3.2 0.00 0.00 0.00 48 1017.1
20260905102829 31 315 1.6 3.2 0.00 0.00 0.00 49 1016.8
20260905100728 31 315 1.6 4.8 0.00 0.00 0.00 52 1016.7
20260905095725 31 0.0 0.0 0.00 0.00 0.00 52 1017.0
20260905094721 31 157 1.6 3.2 0.00 0.00 0.00 53 1017.3
20260905093223 30 292 0.0 1.6 0.00 0.00 0.00 54 1017.0
20260905092241 30 0.0 0.0 0.00 0.00 0.00 55 1017.0
20260905091217 30 292 1.6 3.2 0.00 0.00 0.00 53 1017.3
20260905090212 29 292 0.0 1.6 0.00 0.00 0.00 55 1016.9
20260905085230 28 0.0 0.0 0.00 0.00 0.00 58 1017.1
20260905083225 27 0.0 0.0 0.00 0.00 0.00 62 1016.6
20260905082221 27 0.0 0.0 0.00 0.00 0.00 59 1016.8
20260905081218 27 0.0 1.6 0.00 0.00 0.00 58 1016.7
20260905080212 27 0.0 1.6 0.00 0.00 0.00 59 1016.6
20260905075209 27 0.0 0.0 0.00 0.00 0.00 61 1016.5
20260905073725 27 292 1.6 1.6 0.00 0.00 0.00 58 1016.6
20260905072722 27 0.0 1.6 0.00 0.00 0.00 59 1016.3
20260905071718 26 0.0 0.0 0.00 0.00 0.00 63 1016.4
20260905070714 25 0.0 0.0 0.00 0.00 0.00 64 1016.3
20260905065731 25 292 0.0 1.6 0.00 0.00 0.00 64 1016.5
20260905064708 26 292 0.0 1.6 0.00 0.00 0.00 62 1016.3
20260905063703 24 292 1.6 3.2 0.00 0.00 0.00 68 1016.3
20260905062700 23 0.0 0.0 0.00 0.00 0.00 69 1016.3
20260905061656 24 0.0 0.0 0.00 0.00 0.00 68 1016.4
20260905060348 23 0.0 0.0 0.00 0.00 0.00 70 1016.3
20260905055345 24 0.0 1.6 0.00 0.00 0.00 68 1016.2
20260905054340 22 0.0 0.0 0.00 0.00 0.00 71 1016.1
20260905053340 21 0.0 0.0 0.00 0.00 0.00 76 1016.1
20260905052336 21 0.0 0.0 0.00 0.00 0.00 76 1016.0
20260905051335 21 0.0 0.0 0.00 0.00 0.00 75 1015.9
20260905050325 21 0.0 0.0 0.00 0.00 0.00 74 1015.8
20260905045323 21 0.0 0.0 0.00 0.00 0.00 74 1015.7
20260905044320 21 0.0 0.0 0.00 0.00 0.00 74 1015.5
20260905042322 21 0.0 0.0 0.00 0.00 0.00 73 1015.2
20260905041320 21 0.0 0.0 0.00 0.00 0.00 72 1015.4
20260905040315 21 0.0 0.0 0.00 0.00 0.00 72 1015.5
20260905035331 21 0.0 0.0 0.00 0.00 0.00 72 1015.7
20260905034303 21 0.0 0.0 0.00 0.00 0.00 71 1015.6
20260905033258 21 0.0 0.0 0.00 0.00 0.00 72 1015.7
20260905032248 21 0.0 0.0 0.00 0.00 0.00 70 1016.0
20260905031244 21 0.0 0.0 0.00 0.00 0.00 70 1016.2
20260905030321 21 0.0 1.6 0.00 0.00 0.00 70 1015.9
20260905025237 21 315 3.2 4.8 0.00 0.00 0.00 69 1015.7
20260905024233 21 0 0.0 1.6 0.00 0.00 0.00 66 1015.7
20260905023223 21 0.0 0.0 0.00 0.00 0.00 65 1015.8
20260905022222 21 0.0 0.0 0.00 0.00 0.00 65 1015.9
20260905020322 21 0.0 0.0 0.00 0.00 0.00 64 1016.0
20260905014918 21 0.0 0.0 0.00 0.00 0.00 62 1016.2
20260905013101 22 0.0 0.0 0.00 0.00 0.00 58 1016.1
20260905012057 22 0.0 0.0 0.00 0.00 0.00 57 1016.1
20260905005257 22 0.0 0.0 0.00 0.00 0.00 58 1016.4
20260905002831 23 0.0 0.0 0.00 0.00 0.00 57 1016.5
20260905001325 23 0.0 0.0 0.00 0.00 0.00 58 1016.5
20260905000321 23 0.0 0.0 0.00 0.00 0.00 58 1016.6
20260904234057 24 0.0 0.0 0.00 0.00 0.00 53 1016.8
20260904232242 24 0.0 0.0 0.00 0.00 0.00 53 1016.7
20260904224544 25 0.0 0.0 0.00 0.00 0.00 51 1016.7
20260904223121 25 0.0 0.0 0.00 0.00 0.00 51 1016.8
20260904221657 25 0.0 0.0 0.00 0.00 0.00 50 1016.9
20260904220158 25 0.0 0.0 0.00 0.00 0.00 48 1016.7
20260904215152 25 0.0 0.0 0.00 0.00 0.00 47 1016.8
20260904212724 26 0.0 0.0 0.00 0.00 0.00 45 1017.0
20260904211657 26 0.0 0.0 0.00 0.00 0.00 45 1017.0
20260904205718 26 0.0 0.0 0.00 0.00 0.00 43 1017.2
20260904203713 26 0.0 0.0 0.00 0.00 0.00 43 1017.4
20260904202729 27 0.0 0.0 0.00 0.00 0.00 42 1017.2
20260904201658 27 292 0.0 1.6 0.00 0.00 0.00 41 1017.3
20260904200329 27 315 1.6 3.2 0.00 0.00 0.00 40 1017.0
20260904195325 27 0.0 1.6 0.00 0.00 0.00 40 1017.1
20260904194322 27 315 0.0 1.6 0.00 0.00 0.00 40 1017.1
20260904192328 28 0.0 0.0 0.00 0.00 0.00 41 1017.0
20260904191326 28 0.0 0.0 0.00 0.00 0.00 40 1017.1
20260904190322 28 315 1.6 4.8 0.00 0.00 0.00 41 1017.0
20260904184837 28 315 1.6 3.2 0.00 0.00 0.00 48 1017.0